FW1484 Weather Reports


time (UTC)temp
F
wind
direction
speed
knots
gust
knots
rain 1hr
in
rain 24hr
in
rain mn
in
humidity
%
barometer
mb
20260507173103 57 109 0.0 0.0 0.00 0.00 0.00 69 1008.9
20260507171553 57 120 0.0 5.2 0.00 0.00 0.00 69 1009.0
20260507170056 57 122 1.7 4.3 0.00 0.00 0.00 69 1009.1
20260507164622 57 120 0.9 6.1 0.00 0.00 0.00 70 1009.1
20260507163054 57 171 1.7 5.2 0.00 0.00 0.00 71 1009.0
20260507161557 57 167 1.7 8.7 0.00 0.00 0.00 70 1009.2
20260507160051 58 148 0.9 9.6 0.00 0.00 0.00 69 1009.1
20260507154556 59 134 0.0 1.7 0.00 0.00 0.00 69 1009.1
20260507153048 58 105 0.0 5.2 0.00 0.00 0.00 69 1009.1
20260507151549 58 54 1.7 6.1 0.00 0.00 0.00 68 1009.2
20260507150049 58 52 0.9 6.1 0.00 0.00 0.00 68 1009.2
20260507144546 58 72 1.7 6.1 0.00 0.00 0.00 67 1009.2
20260507143047 57 138 2.6 5.2 0.00 0.00 0.00 68 1009.3
20260507141544 57 104 1.7 5.2 0.00 0.00 0.00 69 1009.6
20260507140045 57 105 2.6 7.0 0.00 0.00 0.00 69 1009.6
20260507134541 58 124 0.9 6.1 0.00 0.00 0.00 68 1009.6
20260507133047 58 139 2.6 6.1 0.00 0.00 0.00 66 1009.6
20260507131541 59 128 0.9 7.0 0.00 0.00 0.00 66 1009.7
20260507130042 58 131 1.7 5.2 0.00 0.00 0.00 66 1009.8
20260507124540 58 94 1.7 4.3 0.00 0.00 0.00 66 1009.7
20260507123041 57 127 0.9 7.0 0.00 0.00 0.00 66 1009.8
20260507121536 58 123 0.9 6.1 0.00 0.00 0.00 65 1009.8
20260507120035 59 102 1.7 9.6 0.00 0.00 0.00 64 1009.8
20260507114554 60 129 1.7 7.0 0.00 0.00 0.00 62 1009.9
20260507113057 60 72 2.6 8.7 0.00 0.00 0.00 60 1009.7
20260507111537 60 105 3.5 8.7 0.00 0.00 0.00 57 1009.8
20260507110028 59 77 1.7 7.0 0.00 0.00 0.00 57 1010.0
20260507104537 59 143 1.7 6.1 0.00 0.00 0.00 59 1010.1
20260507103025 58 100 3.5 7.8 0.00 0.00 0.00 61 1010.2
20260507101520 57 68 1.7 4.3 0.00 0.00 0.00 68 1010.3
20260507100016 56 95 0.0 0.0 0.00 0.00 0.00 71 1010.4
20260507094511 54 82 0.0 0.0 0.00 0.00 0.00 75 1010.3
20260507093007 52 114 0.0 0.0 0.00 0.00 0.00 76 1010.2
20260507091504 51 89 0.0 2.6 0.00 0.00 0.00 78 1010.5
20260507090100 50 117 0.0 0.9 0.00 0.00 0.00 78 1010.6
20260507084609 49 115 0.0 0.9 0.00 0.00 0.00 80 1010.5
20260507083055 48 77 0.0 0.9 0.00 0.00 0.00 82 1010.7
20260507081559 48 77 0.0 0.9 0.00 0.00 0.00 82 1010.7
20260507080051 47 107 0.0 0.9 0.00 0.00 0.00 84 1010.6
20260507074556 47 125 0.0 0.0 0.00 0.00 0.00 85 1010.5
20260507073053 46 124 0.0 0.0 0.00 0.00 0.00 85 1010.6
20260507071548 46 129 0.0 0.9 0.00 0.00 0.00 85 1010.5
20260507070048 46 134 0.0 0.0 0.00 0.00 0.00 86 1010.3
20260507064550 45 133 0.0 0.0 0.00 0.00 0.00 86 1010.2
20260507063046 45 133 0.0 0.0 0.00 0.00 0.00 87 1010.1
20260507061545 45 132 0.0 0.0 0.00 0.00 0.00 86 1010.2